User: anonymous   Login
Location: Unspecified
(22.6800°N, 112.2000°E)
Time: 01:43:45
(UTC+08:00)
Language:

Transit 2A Rocket - Orbit

View from above orbital plane
View from above orbital plane
View from above satellite
View from above satellite

Ground track
Ground track

The orbit data is extracted from the following two-line orbital elements,

1    47U 60007C   21209.20171829  .00000050  00000-0  36247-4 0  9999
2    47  66.6656 150.0500 0226926   4.4504 355.8544 14.42162441193638
Epoch (UTC): 28 July 2021 04:50:28
Eccentricity: 0.0226926
inclination: 66.6656°
perigee height: 589 km
apogee height: 913 km
right ascension of ascending node: 150.0500°
argument of perigee: 4.4504°
revolutions per day: 14.42162441
mean anomaly at epoch: 355.8544°
orbit number at epoch: 19363

The dashed part of the orbit path shows where the satellite is in the earth's shadow,  

DLR